Location: USNO
(38.9242°N, 77.0663°W)
Time: 16:50:39
(UTC-04:00)

Vanguard 1 Rocket - All Passes

Search period start: 17 October 2017 00:00
Search period end: 27 October 2017 00:00
Orbit: 655 x 4222 km, 34.3° (Epoch: 16 October)

Date Brightness Start Highest point End Pass type
(mag) Time Alt. Az. Time Alt. Az. Time Alt. Az.
17 Oct - 08:04:10 10° SW 08:10:01 26° SSE 08:14:10 10° ESE daylight
17 Oct - 10:29:50 10° WSW 10:34:39 48° S 10:38:55 10° ESE daylight
17 Oct - 12:54:56 10° W 12:59:01 36° SSW 13:04:13 10° SE daylight
17 Oct - 15:20:50 10° SW 15:24:06 15° SSW 15:28:14 10° S daylight
18 Oct - 06:52:53 10° SSW 06:58:58 20° SSE 07:03:16 10° ESE visible
18 Oct - 09:18:23 10° WSW 09:24:05 42° S 09:28:19 10° E daylight
18 Oct - 11:44:11 10° W 11:48:28 44° S 11:53:03 10° ESE daylight
18 Oct - 14:09:26 10° WSW 14:13:03 20° SSW 14:17:47 10° SSE daylight
19 Oct - 05:42:12 10° S 05:47:32 15° SSE 05:51:36 10° SE visible
19 Oct - 08:06:32 10° SW 08:13:21 34° SSE 08:17:52 10° E daylight
19 Oct - 10:33:03 10° WSW 10:37:59 50° S 10:42:15 10° ESE daylight
19 Oct - 12:58:31 10° WSW 13:02:19 28° SSW 13:06:58 10° SE daylight
20 Oct - 06:54:31 10° SW 07:02:20 28° SSE 07:07:19 10° ESE visible
20 Oct - 09:21:22 10° WSW 09:27:25 48° S 09:31:45 10° E daylight
20 Oct - 11:47:34 10° W 11:51:47 38° SSW 11:56:09 10° SE daylight
20 Oct - 14:13:53 10° SW 14:16:22 14° SSW 14:19:16 10° S daylight
21 Oct - 05:42:40 10° SSW 05:50:55 22° SSE 05:56:23 10° ESE visible
21 Oct - 08:09:09 10° WSW 08:16:41 43° S 08:21:26 10° E daylight
21 Oct - 10:36:17 10° W 10:41:19 48° S 10:45:33 10° ESE daylight
21 Oct - 13:02:16 10° WSW 13:05:36 20° SSW 13:09:25 10° SSE daylight
22 Oct - 04:31:38 10° S 04:39:04 16° SSE 04:44:31 10° ESE visible
22 Oct - 06:56:35 10° SW 07:05:40 36° SSE 07:11:05 10° E visible
22 Oct - 09:24:25 10° WSW 09:30:45 53° S 09:35:10 10° ESE daylight
22 Oct - 11:51:02 10° W 11:55:04 30° SSW 11:59:08 10° SE daylight
23 Oct - 03:23:35 10° SSE 03:26:46 11° SSE 03:29:36 10° SE visible
23 Oct - 05:43:56 10° SSW 05:54:16 30° SSE 06:00:29 10° ESE visible
23 Oct - 08:11:56 10° WSW 08:20:00 51° S 08:24:54 10° E daylight
23 Oct - 10:39:33 10° W 10:44:36 43° SSW 10:48:47 10° ESE daylight
23 Oct - 13:06:30 10° WSW 13:08:50 14° SSW 13:11:21 10° S daylight
24 Oct - 04:31:42 10° SSW 04:42:25 23° SSE 04:49:20 10° ESE visible
24 Oct - 06:58:55 10° SW 07:08:59 45° SSE 07:14:40 10° E visible
24 Oct - 09:27:33 10° W 09:34:04 54° S 09:38:32 10° ESE daylight
24 Oct - 11:54:36 10° WSW 11:58:17 23° SSW 12:01:54 10° SSE daylight
25 Oct - 03:20:36 10° S 03:30:07 17° SSE 03:36:59 10° ESE visible
25 Oct - 05:45:40 10° SW 05:57:34 38° SSE 06:04:16 10° E visible
25 Oct - 08:14:50 10° WSW 08:23:19 57° S 08:28:21 10° E daylight
25 Oct - 10:42:52 10° W 10:47:52 37° SSW 10:51:56 10° SE daylight
26 Oct - 02:13:13 10° SSE 02:17:21 11° SE 02:21:00 10° SE visible
26 Oct - 04:32:35 10° SSW 04:45:43 31° SSE 04:53:28 10° E visible
26 Oct - 07:01:28 10° WSW 07:12:17 53° S 07:18:10 10° E visible
26 Oct - 09:30:41 10° W 09:37:22 51° S 09:41:51 10° ESE daylight
26 Oct - 11:58:27 10° WSW 12:01:26 17° SSW 12:04:19 10° SSE daylight
